Regional Weather Roundup
Issued by NWS Spokane, WA

Home | Current Version | Previous Version | Text Only | Print | Product List | Glossary On
Versions: 1 2 3 4 5 6 7 8 9 10 11 12 13 14 15 16 17 18 19 20 21 22 23 24 25 26 27 28 29 30 31 32 33 34 35 36 37 38 39 40 41 42 43 44 45 46 47 48 49 50
000
NZUS01 KOTX 231100
RWROTX
EASTERN WASHINGTON/NORTHERN IDAHO ROUNDUP
NATIONAL WEATHER SERVICE, SPOKANE WA
400 AM PDT WED JUL 23 2014

Note: "fair" indicated few or no clouds below 12,000 feet with no
significant weather and/or obstructions to visibility.

...NORTHEAST WASHINGTON AND NORTHERN IDAHO PANHANDLE...

CITY           SKY/WX    TMP DP  RH WIND       PRES   REMARKS
SPOKANE INTL   CLOUDY    63  54  72 CALM      30.09R
SPOKANE DOWNTO CLOUDY    63  55  75 N3        30.09R
COEUR D ALENE  CLOUDY    63  57  82 SE5       30.10R
DEER PARK      CLOUDY    62  56  80 N6        30.09R
SANDPOINT      CLOUDY    61  54  77 NE9       30.10S

...SOUTHEAST WASHINGTON AND SOUTHERN IDAHO PANHANDLE...

CITY           SKY/WX    TMP DP  RH WIND       PRES   REMARKS
WALLA WALLA    MOCLDY    68  58  70 NW3       29.97R
PULLMAN/MOSCOW CLOUDY    61  57  87 E10       30.09F
LOWELL           N/A     67  60  78 CALM      30.12S

...COLUMBIA BASIN...

CITY           SKY/WX    TMP DP  RH WIND       PRES   REMARKS
EPHRATA        CLOUDY    67  52  58 NW13      29.99R
MOSES LAKE     MOCLDY    65  57  75 W6        30.00R
TRI CITIES     MOCLDY    64  61  90 NW5       29.95S
HERMISTON      PTCLDY    64  59  83 CALM      29.93S
PENDLETON      PTCLDY    63  56  78 CALM      29.95F

...EAST SLOPES CASCADES...

CITY           SKY/WX    TMP DP  RH WIND       PRES   REMARKS
THE DALLES     MOCLDY    65  63  93 NW6       29.95S
YAKIMA         MOCLDY    66  59  78 SW3       29.98F
ELLENSBURG     MOCLDY    63  59  87 CALM      30.00F
WENATCHEE      MOCLDY    64  60  87 W5        30.01F
OMAK           CLOUDY    62  52  69 NW5       30.03F

...SOUTHERN BRITISH COLUMBIA...

CITY           SKY/WX    TMP DP  RH WIND       PRES   REMARKS

...WESTERN MONTANA...

CITY           SKY/WX    TMP DP  RH WIND       PRES   REMARKS
MISSOULA       LGT RAIN  64  55  72 E7        30.22R

...NEIGHBORING CITIES...

CITY           SKY/WX    TMP DP  RH WIND       PRES   REMARKS
SEATTLE        CLOUDY    61  60  97 CALM      29.97F



USA.gov is the U.S. government's official web portal to all federal, state and local government web resources and services.